Regional Weather Roundup
Issued by NWS

Home | Current Version | Previous Version | Text Only | Print | Product List | Glossary On
Versions: 1 2 3 4 5 6 7 8 9 10 11 12 13 14 15 16 17 18 19 20 21 22 23 24 25 26 27 28 29 30 31 32 33 34 35 36 37 38 39 40 41 42 43 44 45 46 47 48 49 50
000
ASUS44 KMEG 291300
RWRTN
TENNESSEE HOURLY STATE WEATHER ROUNDUP
NATIONAL WEATHER SERVICE MEMPHIS TN
800 AM CDT TUE JUL 29 2014

TNZ002-004-019-021-049-052-054-088>092-291400-
WEST TENNESSEE

CITY           SKY/WX    TMP DP  RH WIND       PRES   REMARKS
MEMPHIS INTL   MOSUNNY   71  57  61 NE10      30.13R
NWS MEMPHIS      N/A     70 N/A N/A MISG        N/A
JACKSON        SUNNY     66  57  72 NE6       30.12R
DYERSBURG      SUNNY     66  52  59 N6        30.14R
UNION CITY     SUNNY     63  57  82 N3        30.12R
PARIS          SUNNY     61  54  77 N3        30.13R
LEXINGTON      SUNNY     63  55  77 N5        30.10R
SAVANNAH       SUNNY     66  63  88 N6        30.11R
$$

TNZ008-025-027-028-033-062-065-066-291400-
NORTH MIDDLE TENNESSEE

CITY           SKY/WX    TMP DP  RH WIND       PRES   REMARKS
NASHVILLE      SUNNY     65  50  58 N13       30.10R
CLARKSVILLE    SUNNY     63  51  65 N10       30.11R
COOKEVILLE     PTSUNNY   61  57  88 VRB6      30.07R
CROSSVILLE     CLOUDY    61  57  87 N5        30.07R
$$

TNZ061-075-076-078-094-096-097-291400-
SOUTH MIDDLE TENNESSEE

CITY           SKY/WX    TMP DP  RH WIND       PRES   REMARKS
FAYETTEVILLE   SUNNY     63  55  77 N14       30.08R
TULLAHOMA      SUNNY     63  55  77 N9        30.08R
WINCHESTER     MOSUNNY   64  59  82 N5        30.07R
MCMINNVILLE    MOSUNNY   64  64 100 N6        30.07R
COLUMBIA       SUNNY     64  54  68 VRB6      30.08R
SHELBYVILLE    SUNNY     64  54  68 N13       30.09R
$$

TNZ017-018-042-046-047-291400-
NORTHEAST TENNESSEE

CITY           SKY/WX    TMP DP  RH WIND       PRES   REMARKS
TRI CITIES     MOSUNNY   64  58  80 CALM      30.04R
ELIZABETHTON   MOSUNNY   63  57  82 CALM        N/A
$$

TNZ012-013-036-069-073-074-291400-
CENTRAL EAST TENNESSEE

CITY           SKY/WX    TMP DP  RH WIND       PRES   REMARKS
KNOXVILLE      PTSUNNY   66  59  78 N7        30.02R
OAK RIDGE      PTSUNNY   66  59  78 E5        30.04R
GATLINBURG     PTSUNNY   64  61  88 CALM      30.02S
$$

TNZ083-085-099-291400-
SOUTHEAST TENNESSEE

CITY           SKY/WX    TMP DP  RH WIND       PRES   REMARKS
CHATTANOOGA    MOSUNNY   70  59  68 NW8       30.03R
$$

SKY/WX REPORTED AS FAIR MEANS FEW OR NO CLOUDS BELOW
12 THOUSAND FEET.



USA.gov is the U.S. government's official web portal to all federal, state and local government web resources and services.